Location: Fuglau
(48.6333°N, 15.5500°E)
Time: 00:05:56
(UTC+00:00)

Lacrosse 5 - Pass Details

Date: 27 February 2020
Orbit: 715 x 724 km, 57.0° (Epoch: 21 March)

Event Time Altitude Azimuth Distance (km) Brightness Sun altitude
Rises 18:47:05 0° 233° (SW) 3,108 5.7 -22.1°
Reaches altitude 10° 18:49:27 10° 233° (SW) 2,191 4.9 -22.5°
Maximum altitude 18:54:31 89° 317° (NW) 722 1.7 -23.3°
Enters shadow 18:55:37 56° 53° (NE) 854 2.0 -23.5°
